Hourly Data Report for July 15, 2021

KUGLUKTUK A
NUNAVUT
Current Station Operator: NAVCAN

67°49'00.000" N
115°08'38.000" W
22.60 m
2300903
71938
YCO

Download Data

Hourly Data (July 2021)
Hourly Data Report for July 15, 2021
TIME
LST
Temp Definition
°C
Dew Point Definition
°C
Rel Hum Definition
%
Precip. Amount Definition
mm

Wind Dir Definition
10's deg

Wind Spd Definition
km/h
Visibility Definition
km
Stn Press Definition
kPa
Hmdx Definition


Wind Chill Definition


Weather Definition


00:00 2.9 -0.7 77   33 18 24.1 100.58     LegendNANA
01:00 2.5 -1.5 75   34 25 24.1 100.64     LegendNANA
02:00 2.5 -1.9 73   32 22 24.1 100.67     Mostly Cloudy
03:00 2.6 -2.4 70   30 26 24.1 100.71     LegendNANA
04:00 2.8 -2.1 70   32 34 24.1 100.74     LegendNANA
05:00 3.4 -3.5 60   32 33 24.1 100.77     Mostly Cloudy
06:00 3.5 -3.9 58   31 38 24.1 100.77     LegendNANA
07:00 3.5 -3.2 62   32 27 24.1 100.82     LegendNANA
08:00 4.5 -2.7 60   30 25 24.1 100.86     Mostly Cloudy
09:00 4.4 -1.5 65   29 27 24.1 100.89     LegendNANA
10:00 4.2 1.6 83   29 24 19.3 100.91     LegendNANA
11:00 6.3 -0.5 61   30 30 24.1 100.90     Mostly Cloudy
12:00 6.9 1.6 69   31 26 24.1 100.93     LegendNANA
13:00 6.0 2.6 79   30 27 24.1 100.98     Rain Showers
14:00 6.9 0.8 65   32 34 24.1 101.03     Mostly Cloudy
15:00 6.5 1.1 68   33 28 24.1 101.07     LegendNANA
16:00 6.8 1.2 67   34 21 24.1 101.09     LegendNANA
17:00 6.6 1.4 69   34 23 24.1 101.11     Cloudy
18:00 6.2 2.2 76   34 26 24.1 101.15     LegendNANA
19:00 5.8 2.0 76   32 19 24.1 101.21     LegendNANA
20:00 5.6 1.1 73   32 31 24.1 101.25     Cloudy
21:00 5.0 0.9 74   33 34 24.1 101.26     LegendNANA
22:00 4.8 0.8 75   33 27 24.1 101.31     LegendNANA
23:00 4.6 1.0 78   33 22 24.1 101.34     Cloudy

Notes on Data Quality.

Legend

  • E = Estimated
  • M = Missing
  • NA = Not Available*
  • [empty] = Indicates an unobserved value
Date modified: